This is the latest recevied weather packets stored in our database for station/object K3PPP. If no packets are shown the sender has not sent any weather packets the latest 10 day(s).
| Time | Temp. | Humidity | Pressure | Rain* | Wind** | Luminosity | Snow |
|---|---|---|---|---|---|---|---|
| 1777461693 | 12.22° C | 99% | 1012.5 hPa | 0 mm | - | 22 W/m² | - |
| 1777461393 | 12.22° C | 99% | 1012.3 hPa | 0 mm | - | 17 W/m² | - |
| 1777461089 | 12.22° C | 99% | 1012.6 hPa | 0 mm | - | 12 W/m² | - |
| 1777460785 | 12.22° C | 99% | 1012.3 hPa | 0 mm | - | 8 W/m² | - |
| 1777460481 | 12.22° C | 99% | 1012.5 hPa | 0 mm | - | 6 W/m² | - |
| 1777460176 | 12.22° C | 99% | 1012.4 hPa | 0 mm | - | 6 W/m² | - |
| 1777459874 | 12.22° C | 99% | 1012.7 hPa | 0 mm | - | 8 W/m² | - |
| 1777459571 | 12.22° C | 99% | 1012.5 hPa | 0 mm | - | 5 W/m² | - |
| 1777459268 | 12.22° C | 99% | 1012.6 hPa | 0 mm | - | 1 W/m² | - |
| 1777458966 | 11.67° C | 99% | 1012.8 hPa | 0 mm | - | 1 W/m² | - |
| 1777458663 | 12.22° C | 99% | 1012.5 hPa | 0 mm | - | 1 W/m² | - |
| 1777458359 | 12.22° C | 99% | 1012.5 hPa | 0 mm | - | 1 W/m² | - |
| 1777458055 | 11.67° C | 99% | 1012.6 hPa | 0 mm | - | 0 W/m² | - |
| 1777457750 | 11.67° C | 99% | 1012.7 hPa | 0 mm | - | 0 W/m² | - |
| 1777457446 | 11.67° C | 99% | 1012.4 hPa | 0 mm | - | 0 W/m² | - |
| 1777457141 | 11.67° C | 99% | 1012.6 hPa | 0 mm | - | 0 W/m² | - |
| 1777456837 | 11.67° C | 99% | 1012.4 hPa | 0 mm | - | 0 W/m² | - |
| 1777456537 | 11.67° C | 99% | 1012.3 hPa | 0 mm | - | 0 W/m² | - |
| 1777456233 | 11.67° C | 99% | 1012.5 hPa | 0 mm | - | 0 W/m² | - |
| 1777455929 | 11.67° C | 99% | 1012.4 hPa | 0 mm | - | 0 W/m² | - |
| 1777455626 | 11.67° C | 99% | 1012.4 hPa | 0 mm | - | 0 W/m² | - |
| 1777455322 | 11.67° C | 99% | 1012.3 hPa | 0 mm | - | 0 W/m² | - |
| 1777455020 | 11.67° C | 99% | 1012.5 hPa | 0 mm | - | 0 W/m² | - |
| 1777454716 | 11.67° C | 99% | 1012.6 hPa | 0 mm | - | 0 W/m² | - |
| 1777454411 | 11.67° C | 99% | 1012.5 hPa | 0 mm | - | 0 W/m² | - |
* Rain latest hour (hover to see other rain measurements)
** Current wind speed in m/s (hover to see current wind gust speed)